Regional Weather Roundup
Issued by NWS

Home | Current Version | Previous Version | Text Only | Print | Product List | Glossary On
Versions: 1 2 3 4 5 6 7 8 9 10 11 12 13 14 15 16 17 18 19 20 21 22 23 24 25 26 27 28 29 30 31 32 33 34 35 36 37 38 39 40 41 42 43 44 45 46 47 48 49 50
000
ASUS45 KPSR 060910
RWRAZ

ARIZONA REGIONAL HOURLY WEATHER ROUNDUP
NATIONAL WEATHER SERVICE PHOENIX AZ
200 AM MST FRI MAR 06 2015

NOTE: FAIR INDICATES FEW OR NO CLOUDS BELOW 12,000 FEET WITH NO
SIGNIFICANT WEATHER AND/OR OBSTRUCTIONS TO VISIBILITY.

AZZ001>003-036-061000-
NORTHWEST ARIZONA

CITY           SKY/WX    TMP DP  RH WIND       PRES   REMARKS
BULLHEAD CITY  CLEAR     59  23  25 N23       30.24S
KINGMAN        CLEAR     35  27  72 SE5       30.30S WCI  31
$$

AZZ004>008-015-016-018-061000-
NORTH CENTRAL ARIZONA

CITY           SKY/WX    TMP DP  RH WIND       PRES   REMARKS
GRAND CANYON     N/A     19  14  81 MISG      30.38S
PRESCOTT       CLEAR     30  19  63 S7        30.31F WCI  23
FLAGSTAFF      CLEAR     21   8  57 NE7       30.35F WCI  12
PAYSON         CLEAR     43  10  26 NE8       30.31F
PAGE           CLEAR     36  25  64 CALM      30.38S
$$

AZZ009>014-017-061000-
NORTHEAST ARIZONA

CITY           SKY/WX    TMP DP  RH WIND       PRES   REMARKS
WINSLOW        CLEAR     28  18  66 CALM      30.38R
SAINT JOHNS    CLEAR     28  11  48 SE3       30.35S
WINDOW ROCK    CLEAR     20  16  84 CALM      30.38F
SHOW LOW       CLEAR     23  14  68 CALM      30.37S
$$

AZZ023-061000-
GREATER PHOENIX AREA

CITY           SKY/WX    TMP DP  RH WIND       PRES   REMARKS
PHOENIX        CLEAR     58  26  29 E3        30.16S
BUCKEYE        CLEAR     45  39  81 CALM      30.17S
LUKE AFB       CLEAR     50  35  57 NW5       30.17S
DEER VALLEY    CLEAR     53  23  31 E6        30.17F
SCOTTSDALE     CLEAR     52  25  35 CALM      30.19S
MESA-GATEWAY   CLEAR     52  32  46 CALM      30.20R
$$

AZZ027-028-061000-
SOUTHWEST MARICOPA COUNTY AND PINAL COUNTY

CITY           SKY/WX    TMP DP  RH WIND       PRES   REMARKS
CASA GRANDE    CLEAR     54  25  32 NE9       30.18S
GILA BEND      FAIR      46  38  75 S5        30.14F
$$

AZZ503-504-507>509-061000-
SOUTHEAST ARIZONA

CITY           SKY/WX    TMP DP  RH WIND       PRES   REMARKS
TUCSON         CLEAR     51  22  31 SE9       30.20S
DAVIS-MONTHAN  CLEAR     47  22  37 SE8       30.17F
NOGALES        CLEAR     45  23  42 NE10      30.17R
SIERRA VISTA   CLEAR     39  27  60 E13       30.23S WCI  32
DOUGLAS        CLEAR     44  25  47 E12       30.25S
SAFFORD        CLEAR     44  21  40 SE12      30.30R
$$

AZZ020-021-025-026-031-061000-
SOUTHWEST ARIZONA

CITY           SKY/WX    TMP DP  RH WIND       PRES   REMARKS
YUMA           CLEAR     62  27  26 N12       30.12F
$$

CAZ031-033-041-043-047-048-061-061000-
SOUTHERN CALIFORNIA

CITY           SKY/WX    TMP DP  RH WIND       PRES   REMARKS
DOWNTOWN L.A.  CLEAR     55  32  41 CALM      30.15S
L.A. AIRPORT   CLEAR     54  35  48 E3        30.16S
SAN DIEGO      CLEAR     57  36  45 CALM      30.15F
BURBANK        CLEAR     53  23  31 W5        30.15F
ONTARIO        CLEAR     53  26  35 CALM      30.16F
RIVERSIDE      CLEAR     50  29  44 E3        30.18S
PALM SPRINGS   CLEAR     64  17  16 W7        30.20F
EL CENTRO NAS  CLEAR     50  32  50 W12       30.15F
IMPERIAL       CLEAR     49  35  58 W10       30.14F
BLYTHE         CLEAR     55  30  38 N6        30.17F
NEEDLES        CLEAR     58  23  26 N7        30.23F
$$

NVZ020-UTZ003-061000-
SOUTHERN NEVADA-UTAH

CITY           SKY/WX    TMP DP  RH WIND       PRES   REMARKS
LAS VEGAS      CLEAR     48  31  51 S10       30.27S
SALT LAKE CITY CLEAR     32  23  69 SE6       30.42S WCI  26
$$

NMZ009-TXZ055-061000-
NEW MEXICO-WEST TEXAS

CITY           SKY/WX    TMP DP  RH WIND       PRES   REMARKS
ALBUQUERQUE    CLEAR     36  12  37 N6        30.37S WCI  31
EL PASO        CLEAR     38  14  37 CALM      30.35F
$$


........................KEY........................
SKY/WX - SKY CONDITION/WEATHER
TMP    - TEMPERATURE IN FAHRENHEIT
DP     - DEW POINT IN FAHRENHEIT
RH     - RELATIVE HUMIDITY IN PERCENT
WIND   - DIRECTION AND SPEED IN MILES PER HOUR (MPH)
VRB    - VARIABLE WIND DIRECTION
PRES   - MEAN SEA LEVEL PRESSURE IN INCHES OF MERCURY
         F - FALLING PRESSURE   R - RISING PRESSURE
         S - STEADY PRESSURE
VSB    - VISIBILITY IN MILES
HX     - HEAT INDEX IN FAHRENHEIT
WCI    - WIND CHILL INDEX IN FAHRENHEIT
TC     - TEMPERATURE IN CELSIUS WHICH IS ALSO KNOWN AS
         TEMPERATURE IN CENTIGRADE
AFB    - AIR FORCE BASE
         LUKE AFB IS LUKE AIR FORCE BASE
         DAVIS-MONTHAN IS DAVIS-MONTHAN AIR FORCE BASE
NAS    - NAVAL AIR STATION
         EL CENTRO NAS IS EL CENTRO NAVAL AIR STATION
N/A    - NOT AVAILABLE



USA.gov is the U.S. government's official web portal to all federal, state and local government web resources and services.